EA1IDU Weather Reports


Display with metric or nautical units.
time (UTC)temp
F
wind
direction
speed
MPH
gust
MPH
rain 1hr
in
rain 24hr
in
rain mn
in
humidity
%
barometer
mb
20260510195132 50 173 4.0 4.0 0.00 0.06 0.06 76 1012.2
20260510194106 50 186 3.0 4.0 0.00 0.06 0.06 74 1012.1
20260510193121 50 198 2.0 4.0 0.00 0.06 0.06 74 1012.2
20260510192056 50 187 3.0 6.0 0.00 0.06 0.06 73 1012.2
20260510191112 51 222 3.0 6.0 0.00 0.06 0.06 73 1012.1
20260510190046 51 217 3.0 6.0 0.00 0.06 0.06 72 1011.9
20260510185041 51 206 3.0 7.0 0.00 0.06 0.06 71 1012.0
20260510184036 51 209 4.0 7.0 0.00 0.06 0.06 70 1011.8
20260510183031 51 223 4.0 8.0 0.00 0.06 0.06 70 1011.6
20260510182026 51 203 6.0 11.0 0.00 0.06 0.06 70 1011.8
20260510181021 50 196 11.0 17.0 0.00 0.06 0.06 78 1012.0
20260510180016 52 229 14.0 24.0 0.00 0.06 0.06 75 1011.9
20260510175111 53 228 10.0 16.0 0.00 0.06 0.06 64 1011.7
20260510174106 53 240 7.0 14.0 0.00 0.06 0.06 63 1011.6
20260510173101 53 217 8.0 14.0 0.00 0.06 0.06 65 1011.4
20260510172056 52 237 7.0 15.0 0.00 0.06 0.06 66 1011.4
20260510171051 51 253 7.0 11.0 0.00 0.06 0.06 70 1011.2
20260510170047 51 303 8.0 15.0 0.00 0.06 0.06 70 1011.4
20260510165042 54 293 12.0 23.0 0.00 0.06 0.06 68 1011.1
20260510164056 54 262 7.0 14.0 0.00 0.06 0.06 68 1010.9
20260510163031 56 281 11.0 16.0 0.00 0.06 0.06 65 1010.8
20260510162047 57 240 11.0 17.0 0.00 0.06 0.06 60 1010.7
20260510161042 57 228 7.0 13.0 0.00 0.06 0.06 59 1010.6
20260510160037 56 200 8.0 15.0 0.00 0.06 0.06 60 1010.7
20260510155132 56 215 10.0 25.0 0.00 0.06 0.06 60 1010.4
20260510154127 55 208 11.0 21.0 0.00 0.06 0.06 60 1010.5
20260510153103 56 242 11.0 18.0 0.00 0.06 0.06 57 1010.6
20260510152057 57 191 14.0 23.0 0.00 0.06 0.06 56 1010.6
20260510151132 56 160 12.0 22.0 0.00 0.06 0.06 58 1010.5
20260510150047 56 201 16.0 24.0 0.00 0.06 0.06 59 1010.6
20260510145042 56 228 12.0 23.0 0.00 0.06 0.06 60 1010.9
20260510144037 55 218 14.0 22.0 0.00 0.06 0.06 59 1011.0
20260510143034 55 220 13.0 24.0 0.00 0.06 0.06 62 1011.2
20260510142028 55 205 12.0 21.0 0.00 0.06 0.06 65 1011.1
20260510141022 54 217 10.0 18.0 0.00 0.07 0.06 68 1011.4
20260510140017 53 199 13.0 20.0 0.00 0.08 0.06 69 1011.4
20260510135113 53 216 11.0 17.0 0.00 0.08 0.06 72 1011.5
20260510134108 53 172 11.0 17.0 0.00 0.08 0.06 74 1011.6
20260510133103 52 210 11.0 16.0 0.00 0.08 0.06 74 1011.8
20260510132058 52 188 8.0 16.0 0.00 0.09 0.06 76 1011.8
20260510131053 51 204 8.0 11.0 0.00 0.09 0.06 79 1011.8
20260510130048 51 214 8.0 11.0 0.00 0.09 0.06 79 1012.1
20260510125043 50 208 8.0 13.0 0.00 0.09 0.06 80 1012.0
20260510124037 49 222 4.0 7.0 0.00 0.09 0.06 83 1012.3
20260510123032 48 202 4.0 7.0 0.01 0.09 0.06 84 1012.4
20260510122027 47 265 4.0 7.0 0.02 0.09 0.06 86 1012.5
20260510121023 47 269 3.0 8.0 0.02 0.09 0.06 87 1012.5
20260510120059 46 262 6.0 8.0 0.02 0.09 0.06 88 1012.5
20260510115133 47 233 6.0 14.0 0.02 0.09 0.06 89 1013.0
20260510114108 47 240 8.0 16.0 0.02 0.09 0.06 89 1013.0
20260510113103 49 225 11.0 20.0 0.01 0.08 0.05 85 1013.0
20260510112058 50 208 12.0 17.0 0.00 0.07 0.04 81 1012.7
20260510111053 50 221 16.0 27.0 0.00 0.07 0.04 77 1012.5
20260510110049 52 217 19.0 29.0 0.00 0.07 0.04 75 1012.2
20260510105043 53 214 13.0 17.0 0.00 0.07 0.04 71 1011.8
20260510104038 53 216 13.0 22.0 0.00 0.07 0.04 68 1011.6
20260510103033 54 199 12.0 23.0 0.00 0.07 0.04 69 1011.5
20260510102028 55 188 11.0 17.0 0.00 0.07 0.04 67 1011.4
20260510101023 55 204 12.0 22.0 0.00 0.07 0.04 66 1011.3
20260510100018 54 204 9.0 16.0 0.00 0.07 0.04 67 1011.3
20260510095133 54 189 11.0 21.0 0.00 0.07 0.04 68 1011.4
20260510094110 54 216 10.0 16.0 0.00 0.07 0.04 70 1011.7
20260510093104 53 187 12.0 18.0 0.00 0.07 0.04 68 1011.7
20260510092139 53 180 11.0 16.0 0.00 0.07 0.04 70 1011.6
20260510091113 54 185 10.0 18.0 0.00 0.07 0.04 70 1011.6
20260510090049 53 203 11.0 17.0 0.00 0.07 0.04 69 1011.6
20260510085044 53 206 8.0 13.0 0.00 0.07 0.04 72 1011.8
20260510084038 52 195 10.0 15.0 0.00 0.07 0.04 74 1011.9
20260510083054 51 204 8.0 13.0 0.00 0.07 0.04 78 1011.8
20260510082048 50 209 8.0 11.0 0.00 0.07 0.04 81 1012.1
20260510081023 50 197 8.0 14.0 0.00 0.07 0.04 82 1012.1
20260510080018 49 195 7.0 11.0 0.00 0.07 0.04 83 1012.1
20260510075114 49 223 5.0 11.0 0.00 0.07 0.04 86 1012.2
20260510074109 48 199 5.0 9.0 0.00 0.07 0.04 87 1012.3
20260510073103 48 186 4.0 7.0 0.00 0.07 0.04 87 1012.2
20260510072059 48 213 6.0 9.0 0.00 0.07 0.04 87 1012.1
20260510071053 48 202 5.0 9.0 0.00 0.07 0.04 88 1012.2
20260510070048 47 205 5.0 8.0 0.00 0.07 0.04 89 1012.1
20260510065043 47 203 5.0 9.0 0.00 0.07 0.04 89 1012.1
20260510064038 47 205 5.0 8.0 0.00 0.07 0.04 89 1012.0
20260510063033 47 207 6.0 9.0 0.00 0.07 0.04 89 1012.0
20260510062028 47 214 6.0 9.0 0.00 0.07 0.04 89 1011.9
20260510061025 47 218 5.0 8.0 0.00 0.07 0.04 89 1011.8
20260510060018 47 191 6.0 9.0 0.00 0.07 0.04 89 1011.6
20260510055113 47 217 3.0 8.0 0.00 0.07 0.04 90 1011.6
20260510054109 46 195 5.0 7.0 0.00 0.07 0.04 91 1011.6
20260510053104 46 197 6.0 9.0 0.00 0.07 0.04 91 1011.7
20260510052118 46 203 4.0 7.0 0.00 0.07 0.04 91 1011.5
20260510051053 46 206 6.0 9.0 0.00 0.07 0.04 91 1011.6
20260510050108 46 206 5.0 8.0 0.00 0.07 0.04 91 1011.6
20260510045103 46 211 5.0 8.0 0.00 0.07 0.04 91 1011.4
20260510044038 46 202 6.0 11.0 0.00 0.07 0.04 91 1011.4
20260510043033 46 225 5.0 9.0 0.00 0.07 0.04 91 1011.6
20260510042028 46 204 7.0 11.0 0.00 0.07 0.04 91 1011.6
20260510041023 46 207 7.0 9.0 0.00 0.07 0.04 91 1011.6
20260510040019 46 191 7.0 9.0 0.00 0.07 0.04 91 1011.6
20260510035113 46 194 6.0 9.0 0.00 0.07 0.04 91 1011.6
20260510034108 46 190 4.0 8.0 0.00 0.07 0.04 91 1011.7
20260510033103 46 211 6.0 8.0 0.00 0.07 0.04 91 1011.8
20260510032058 46 208 5.0 8.0 0.00 0.07 0.04 91 1011.7
20260510031054 47 207 6.0 9.0 0.00 0.07 0.04 91 1011.9
20260510030048 47 196 5.0 7.0 0.00 0.07 0.04 91 1011.6
20260510025043 47 218 5.0 9.0 0.00 0.07 0.04 91 1011.7
20260510024122 47 205 6.0 11.0 0.00 0.07 0.04 92 1012.0
20260510023033 47 199 6.0 11.0 0.00 0.07 0.04 92 1011.9
20260510022028 47 194 7.0 9.0 0.00 0.07 0.04 92 1011.7
20260510021023 48 173 7.0 8.0 0.00 0.07 0.04 92 1011.7
20260510020019 48 186 5.0 9.0 0.00 0.07 0.04 92 1011.8
20260510015115 48 203 5.0 8.0 0.00 0.07 0.04 91 1011.9
20260510014109 48 195 5.0 8.0 0.00 0.07 0.04 90 1012.0
20260510013124 48 203 6.0 8.0 0.00 0.07 0.04 90 1011.9
20260510012059 48 202 4.0 8.0 0.01 0.07 0.04 90 1011.9
20260510011114 48 227 8.0 11.0 0.02 0.07 0.04 90 1012.1
20260510010050 49 225 9.0 15.0 0.02 0.07 0.04 91 1012.2
20260510005104 49 213 6.0 11.0 0.04 0.07 0.04 91 1012.3
20260510004039 49 225 6.0 11.0 0.04 0.07 0.04 91 1012.3
20260510003034 49 214 5.0 8.0 0.04 0.07 0.04 90 1012.2
20260510002029 50 194 6.0 8.0 0.02 0.06 0.02 89 1012.2
20260510001024 50 219 7.0 9.0 0.01 0.05 0.01 86 1012.1
20260510000019 51 221 9.0 13.0 0.01 0.05 0.01 84 1012.2
20260509235114 51 200 11.0 21.0 0.00 0.04 0.00 80 1012.2
20260509234109 51 214 8.0 14.0 0.00 0.04 0.00 79 1012.0
20260509233125 51 189 7.0 9.0 0.00 0.04 0.00 81 1012.0
20260509232059 51 187 5.0 7.0 0.00 0.04 0.00 82 1012.0
20260509231054 51 207 4.0 8.0 0.00 0.04 0.00 83 1011.8
20260509230050 51 198 4.0 7.0 0.00 0.04 0.00 82 1011.7
20260509225044 51 207 3.0 6.0 0.00 0.04 0.00 81 1011.8
20260509224039 51 218 3.0 6.0 0.00 0.04 0.00 80 1011.8
20260509223054 52 192 2.0 4.0 0.00 0.04 0.00 78 1011.5
20260509222049 52 194 3.0 6.0 0.00 0.04 0.00 77 1011.6
20260509221024 53 202 5.0 8.0 0.00 0.04 0.00 75 1011.4
20260509220019 53 207 7.0 11.0 0.00 0.04 0.00 73 1011.3
20260509215114 54 195 5.0 9.0 0.00 0.04 0.04 75 1011.2
20260509214131 54 179 7.0 16.0 0.00 0.04 0.04 75 1011.1
20260509213105 55 160 7.0 14.0 0.00 0.04 0.04 75 1011.2
20260509212101 55 192 5.0 11.0 0.00 0.04 0.04 74 1011.1
20260509211054 54 188 5.0 9.0 0.00 0.04 0.04 75 1011.0
20260509210049 54 186 5.0 8.0 0.00 0.04 0.04 74 1010.8
20260509205045 55 190 5.0 7.0 0.00 0.04 0.04 74 1010.6
20260509204039 55 195 3.0 4.0 0.00 0.04 0.04 74 1010.6
20260509203034 54 165 3.0 4.0 0.00 0.04 0.04 75 1010.5
20260509202029 54 116 2.0 4.0 0.00 0.04 0.04 75 1010.4
20260509201024 55 176 3.0 6.0 0.00 0.04 0.04 74 1010.2
20260509200040 55 172 5.0 7.0 0.00 0.04 0.04 73 1010.1